[Date Prev][Date Next][Thread Prev][Thread Next] - [Date Index][Thread Index][Author Index]

2 Line ISS Keps 12-30



ISS
1 25544U 98067A   02364.19357639  .00025081  00000-0  33007-3 0  5266
2 25544  51.6355 149.0884 0004305 337.3102  16.6221 15.58293006234671


----
Via the sarex mailing list at AMSAT.ORG courtesy of AMSAT-NA.
To unsubscribe, send "unsubscribe sarex" to Majordomo@amsat.org



AMSAT Top AMSAT Home